When you browse on this site, cookies collect data to enhance your experience and personalize the content and advertising you see.
Visit our Privacy Policy to learn more. By continuing to use the site, you agree to this use of cookies and data.

Hourly Weather Zastavky

Today, 20 September, Sunday

Time Temperature Precipitation Wind Pressure Humidity
00:00 +10°C° 0 mm 2 mps 740 mmHg 68%
01:00 +10°C° 0 mm 1 mps 740 mmHg 69%
02:00 +9°C° 0 mm 1 mps 740 mmHg 70%
03:00 +9°C° 0 mm 1 mps 739 mmHg 70%
04:00 +8°C° 0 mm 1 mps 739 mmHg 71%
05:00 +8°C° 0 mm 1 mps 739 mmHg 71%
06:00 +9°C° 0 mm 1 mps 740 mmHg 68%
07:00 +10°C° 0 mm 1 mps 740 mmHg 64%
08:00 +12°C° 0 mm 1 mps 740 mmHg 59%
09:00 +13°C° 0 mm 1 mps 741 mmHg 56%
10:00 +15°C° 0 mm 1 mps 741 mmHg 54%
11:00 +17°C° 0 mm 2 mps 741 mmHg 51%
12:00 +18°C° 0 mm 2 mps 740 mmHg 50%
13:00 +19°C° 0 mm 2 mps 740 mmHg 49%
14:00 +20°C° 0 mm 2 mps 740 mmHg 48%
15:00 +19°C° 0 mm 2 mps 740 mmHg 52%
16:00 +19°C° 0 mm 2 mps 740 mmHg 55%
17:00 +19°C° 0 mm 1 mps 739 mmHg 58%
18:00 +17°C° 0 mm 2 mps 739 mmHg 62%
19:00 +16°C° 0 mm 2 mps 739 mmHg 66%
20:00 +14°C° 0 mm 2 mps 739 mmHg 69%
21:00 +14°C° 0 mm 2 mps 740 mmHg 70%
22:00 +13°C° 0 mm 2 mps 740 mmHg 71%
23:00 +13°C° 0 mm 2 mps 740 mmHg 72%

Tomorrow, 21 September, Monday

Time Temperature Precipitation Wind Pressure Humidity
00:00 +12°C° 0 mm 2 mps 740 mmHg 72%
01:00 +11°C° 0 mm 3 mps 740 mmHg 72%
02:00 +11°C° 0 mm 3 mps 740 mmHg 72%
03:00 +10°C° 0 mm 3 mps 740 mmHg 71%
04:00 +10°C° 0 mm 3 mps 739 mmHg 71%
05:00 +10°C° 0 mm 3 mps 739 mmHg 70%
06:00 +11°C° 0 mm 3 mps 739 mmHg 66%
07:00 +12°C° 0 mm 3 mps 739 mmHg 62%
08:00 +13°C° 0 mm 3 mps 740 mmHg 58%
09:00 +16°C° 0 mm 3 mps 740 mmHg 52%
10:00 +18°C° 0 mm 3 mps 740 mmHg 45%
11:00 +20°C° 0 mm 3 mps 740 mmHg 39%
12:00 +21°C° 0 mm 3 mps 740 mmHg 37%
13:00 +22°C° 0 mm 3 mps 740 mmHg 35%
14:00 +24°C° 0 mm 3 mps 740 mmHg 34%
15:00 +22°C° 0 mm 3 mps 739 mmHg 37%
16:00 +23°C° 0 mm 2 mps 739 mmHg 41%
17:00 +21°C° 0 mm 2 mps 739 mmHg 45%
18:00 +19°C° 0 mm 2 mps 739 mmHg 47%
19:00 +17°C° 0 mm 2 mps 739 mmHg 49%
20:00 +15°C° 0 mm 2 mps 739 mmHg 52%
21:00 +14°C° 0 mm 3 mps 739 mmHg 51%
22:00 +13°C° 0 mm 3 mps 739 mmHg 51%
23:00 +13°C° 0 mm 3 mps 738 mmHg 51%

Day after tomorrow, 22 September, Tuesday

Time Temperature Precipitation Wind Pressure Humidity
00:00 +13°C° 0 mm 3 mps 738 mmHg 52%
01:00 +12°C° 0 mm 3 mps 738 mmHg 52%
02:00 +12°C° 0 mm 3 mps 738 mmHg 53%
03:00 +11°C° 0 mm 3 mps 738 mmHg 53%
04:00 +11°C° 0 mm 3 mps 738 mmHg 53%
05:00 +11°C° 0 mm 3 mps 738 mmHg 54%
06:00 +12°C° 0 mm 4 mps 738 mmHg 54%
07:00 +14°C° 0 mm 4 mps 738 mmHg 54%
08:00 +15°C° 0 mm 4 mps 738 mmHg 54%
09:00 +17°C° 0 mm 5 mps 738 mmHg 50%
10:00 +20°C° 0 mm 5 mps 738 mmHg 46%
11:00 +22°C° 0 mm 6 mps 738 mmHg 42%
12:00 +23°C° 0 mm 5 mps 738 mmHg 39%
13:00 +25°C° 0 mm 5 mps 738 mmHg 36%
14:00 +25°C° 0 mm 5 mps 738 mmHg 33%
15:00 +23°C° 0 mm 4 mps 737 mmHg 36%
16:00 +23°C° 0 mm 4 mps 737 mmHg 38%
17:00 +22°C° 0 mm 3 mps 736 mmHg 41%
18:00 +20°C° 0 mm 3 mps 736 mmHg 41%
19:00 +18°C° 0 mm 3 mps 736 mmHg 42%
20:00 +16°C° 0 mm 3 mps 736 mmHg 43%
21:00 +14°C° 0 mm 3 mps 736 mmHg 41%
22:00 +14°C° 0 mm 3 mps 736 mmHg 40%
23:00 +13°C° 0 mm 3 mps 735 mmHg 38%

23 September, Wednesday

Time Temperature Precipitation Wind Pressure Humidity
00:00 +13°C° 0 mm 4 mps 735 mmHg 39%
01:00 +12°C° 0 mm 4 mps 735 mmHg 39%
02:00 +12°C° 0 mm 4 mps 735 mmHg 40%
03:00 +12°C° 0 mm 4 mps 735 mmHg 47%
04:00 +11°C° 0 mm 4 mps 735 mmHg 54%
05:00 +11°C° 0 mm 4 mps 735 mmHg 61%
06:00 +12°C° 0 mm 4 mps 734 mmHg 58%
07:00 +13°C° 0 mm 5 mps 734 mmHg 56%
08:00 +14°C° 0 mm 5 mps 734 mmHg 53%
09:00 +16°C° 0 mm 6 mps 734 mmHg 48%
10:00 +19°C° 0 mm 6 mps 734 mmHg 43%
11:00 +21°C° 0 mm 6 mps 734 mmHg 38%
12:00 +21°C° 0 mm 6 mps 734 mmHg 36%
13:00 +22°C° 0 mm 6 mps 734 mmHg 34%
14:00 +23°C° 0 mm 6 mps 733 mmHg 32%
15:00 +22°C° 0 mm 5 mps 733 mmHg 35%
16:00 +21°C° 0 mm 4 mps 733 mmHg 38%
17:00 +20°C° 0 mm 3 mps 732 mmHg 40%
18:00 +19°C° 0 mm 3 mps 732 mmHg 41%
19:00 +17°C° 0 mm 3 mps 732 mmHg 41%
20:00 +14°C° 0 mm 3 mps 732 mmHg 41%
21:00 +14°C° 0 mm 3 mps 732 mmHg 40%
22:00 +13°C° 0 mm 3 mps 732 mmHg 39%
23:00 +13°C° 0 mm 3 mps 732 mmHg 38%

24 September, Thursday

Time Temperature Precipitation Wind Pressure Humidity
00:00 +13°C° 0 mm 3 mps 732 mmHg 41%
01:00 +12°C° 0 mm 3 mps 732 mmHg 43%
02:00 +12°C° 0 mm 3 mps 732 mmHg 45%
03:00 +12°C° 0 mm 3 mps 732 mmHg 47%
04:00 +12°C° 0 mm 3 mps 732 mmHg 50%
05:00 +12°C° 0 mm 3 mps 732 mmHg 52%
06:00 +13°C° 0 mm 3 mps 732 mmHg 53%
07:00 +14°C° 0 mm 4 mps 732 mmHg 53%
08:00 +15°C° 0 mm 4 mps 733 mmHg 53%
09:00 +18°C° 0 mm 4 mps 733 mmHg 50%
10:00 +20°C° 0 mm 4 mps 733 mmHg 47%
11:00 +22°C° 0 mm 4 mps 733 mmHg 44%
12:00 +25°C° 0 mm 4 mps 733 mmHg 42%
13:00 +26°C° 0 mm 3 mps 733 mmHg 40%
14:00 +27°C° 0 mm 3 mps 733 mmHg 37%
15:00 +26°C° 0 mm 3 mps 733 mmHg 41%
16:00 +25°C° 0 mm 2 mps 733 mmHg 44%
17:00 +25°C° 0 mm 2 mps 733 mmHg 47%
18:00 +23°C° 0 mm 2 mps 733 mmHg 50%
19:00 +20°C° 0 mm 2 mps 733 mmHg 53%
20:00 +19°C° 0 mm 2 mps 733 mmHg 56%
21:00 +18°C° 0 mm 2 mps 733 mmHg 57%
22:00 +18°C° 0 mm 2 mps 733 mmHg 57%
23:00 +17°C° 0 mm 2 mps 733 mmHg 58%

25 September, Friday

Time Temperature Precipitation Wind Pressure Humidity
00:00 +17°C° 0 mm 2 mps 733 mmHg 59%
01:00 +17°C° 0 mm 2 mps 733 mmHg 59%
02:00 +16°C° 0 mm 2 mps 733 mmHg 60%
03:00 +16°C° 0 mm 2 mps 733 mmHg 60%
04:00 +15°C° 0 mm 2 mps 733 mmHg 60%
05:00 +15°C° 0 mm 2 mps 732 mmHg 61%
06:00 +16°C° 0 mm 3 mps 732 mmHg 60%
07:00 +17°C° 0 mm 3 mps 732 mmHg 58%
08:00 +18°C° 0 mm 4 mps 732 mmHg 57%
09:00 +20°C° 0 mm 4 mps 732 mmHg 52%
10:00 +23°C° 0 mm 5 mps 732 mmHg 47%
11:00 +26°C° 0 mm 6 mps 732 mmHg 42%
12:00 +27°C° 0 mm 6 mps 732 mmHg 40%
13:00 +28°C° 0 mm 6 mps 731 mmHg 38%
14:00 +28°C° 0 mm 6 mps 731 mmHg 36%
15:00 +27°C° 0 mm 5 mps 730 mmHg 39%
16:00 +26°C° 0 mm 4 mps 729 mmHg 43%
17:00 +25°C° 0 mm 3 mps 729 mmHg 46%
18:00 +23°C° 0 mm 4 mps 728 mmHg 46%
19:00 +22°C° 0 mm 4 mps 728 mmHg 45%
20:00 +21°C° 0 mm 5 mps 728 mmHg 45%
21:00 +21°C° 0 mm 5 mps 728 mmHg 43%
22:00 +21°C° 0 mm 6 mps 727 mmHg 41%
23:00 +21°C° 0 mm 6 mps 727 mmHg 39%
Show more